Temperature
16 15 16 15 15 15 15 15 15 15 15 14 14 14 14 14 14 14 14 14 14 14 14 14 14 14 14 14 14 14 14 14 14 14 14 14 14 14 14 14 14 14 14
15 15 15 15 15 15 15 15 14 14 14 14 14 14 14 14 14 14 14 14 14 14 14 14 14 14 14 14 14 14 14 14 14 13 14 14 14 14 14 14 14 14 14
15 15 15 15 15 15 14 14 14 14 14 14 14 14 14 14 14 14 14 14 14 14 14 14 14 14 14 14 14 14 14 13 13 13 13 13 13 13 13 14 13 13 13
15 15 15 15 14 14 14 14 14 14 14 14 14 14 14 14 14 14 14 14 14 14 14 14 13 13 14 14 14 14 13 13 13 13 13 13 13 13 13 13 13 13 13
15 15 14 14 14 14 14 14 14 14 14 14 14 14 14 14 13 13 13 13 13 13 13 13 13 13 13 13 13 13 13 13 13 13 13 13 13 13 13 13 13 13 13
14 14 14 14 14 14 14 14 14 14 14 14 14 14 13 13 13 13 13 13 13 13 13 13 13 13 13 13 13 13 13 13 13 13 13 12 12 12 12 12 12 12 12
14 14 14 14 13 13 13 13 13 13 13 13 13 13 13 13 13 13 13 13 13 13 13 13 13 13 13 13 13 13 13 13 12 12 12 12 12 12 12 12 12 12 12
14 14 13 13 13 13 13 13 13 13 13 13 13 13 13 13 13 13 13 13 13 13 12 12 12 12 12 12 12 12 12 12 12 12 12 12 12 12 12 12 12 12 12
14 13 13 13 13 13 13 13 13 13 13 13 13 13 13 13 13 13 12 12 12 12 12 12 12 12 12 12 12 12 12 12 12 12 11 12 12 11 11 11 11 11 11
13 13 13 13 13 13 13 13 13 13 12 13 13 12 12 12 12 12 12 12 12 12 12 12 12 12 12 12 12 12 12 12 11 11 11 11 11 11 11 11 11 11 11
13 13 13 13 13 13 13 12 12 12 12 12 12 12 12 12 12 12 12 12 12 12 12 12 11 12 11 11 11 11 11 11 11 11 11 11 11 11 11 11 11 11 11
13 13 13 13 13 12 12 12 12 12 12 12 12 12 12 12 12 12 12 12 12 11 11 11 11 11 11 11 11 11 11 11 11 11 11 11 11 11 11 11 11 11 11
13 13 13 12 12 12 12 12 12 12 12 12 11 11 11 11 11 11 12 12 11 11 11 11 11 11 11 11 11 11 11 11 10 10 10 10 10 10 10 10 10 10 10
12 12 12 12 12 12 12 12 12 12 11 11 11 11 11 11 11 11 11 11 11 11 11 11 11 11 11 11 11 11 10 10 10 10 10 10 10 10 10 10 10 10 10
12 12 12 12 12 12 12 12 12 11 11 11 11 11 11 11 11 11 11 11 11 11 11 11 11 11 10 10 10 10 10 10 10 10 10 10 10 10 10 10 10 10 10
12 12 12 12 12 12 12 11 11 11 11 11 11 11 11 11 10 10 10 10 10 10 10 10 10 10 10 10 10 10 10 10 10 10 10 10 10 10 10 10 9 9 9
12 12 12 12 12 12 11 11 11 11 11 11 11 10 10 10 10 10 10 10 10 10 10 10 10 10 10 10 10 10 10 10 10 10 9 9 9 9 9 9 9 9 9
12 12 12 12 12 11 11 11 11 11 11 10 10 10 10 10 10 10 10 10 10 10 10 10 10 10 10 10 10 10 10 9 9 9 9 9 9 9 9 9 9 9 9
11 11 11 11 11 11 11 11 11 11 11 10 10 10 10 10 9 9 9 9 9 9 9 9 10 10 10 10 10 9 9 9 9 9 9 9 9 9 9 9 8 8 8
11 11 11 11 11 11 11 11 11 10 10 10 10 10 10 9 9 9 9 9 9 9 9 9 9 9 9 9 9 9 9 9 9 9 9 9 9 8 8 8 8 8 8
11 11 11 11 11 11 11 10 10 10 10 10 10 10 9 9 9 9 9 9 9 9 9 9 9 9 9 9 9 9 9 9 9 9 9 9 8 8 8 8 8 8 8
11 11 11 10 10 10 10 10 10 10 10 10 10 9 9 9 9 9 8 8 8 8 8 9 9 9 9 9 9 9 9 9 9 8 8 8 8 8 8 8 8 8 8
10 10 10 10 10 10 10 10 10 10 10 10 9 9 9 9 9 8 8 8 8 8 8 8 8 8 8 8 8 8 8 8 8 8 8 8 8 8 8 8 8 8 8
10 10 10 10 10 10 10 10 9 9 9 9 9 9 9 9 8 8 8 8 8 8 8 8 8 8 8 8 8 8 8 8 8 8 8 8 8 7 7 7 7 7 7
10 10 10 10 10 10 9 9 9 9 9 9 9 8 8 8 8 8 8 8 8 8 8 8 8 8 8 8 8 8 8 8 7 7 7 7 7 7 7 7 7 7 7
9 9 9 9 9 9 9 9 9 9 8 8 8 8 8 8 8 8 8 7 7 7 8 8 8 8 8 8 7 7 7 7 7 7 7 7 7 7 7 7 7 7 7
Wind_Speed
4 4 4 4 4 4 3 4 4 3 4 4 4 3 3 3 3 3 3 3 4 4 4 4 5 4 3 3 2 2 3 3 4 3 2 2 2 3 3 5 6 6 8
4 4 4 4 4 4 3 3 4 4 4 4 3 3 3 3 3 4 4 4 4 4 4 4 5 4 3 3 2 3 3 3 4 4 3 2 3 3 3 3 4 5 6
4 4 4 4 4 3 3 3 3 3 3 3 4 4 4 3 3 4 4 4 4 4 4 5 5 4 4 3 3 3 3 3 3 3 3 2 2 2 1 2 3 3 5
4 4 4 4 4 4 3 3 3 3 4 4 4 4 4 3 3 3 3 3 3 3 4 4 5 5 5 5 4 4 4 3 2 2 2 2 2 2 1 2 2 2 3
4 4 4 3 3 3 3 3 2 2 3 4 3 3 3 3 3 3 3 3 3 3 3 4 4 5 6 6 4 4 4 3 2 2 2 2 2 1 2 2 2 2 3
4 4 3 3 3 3 3 2 2 2 1 2 2 3 2 3 4 4 3 2 2 3 3 3 3 3 4 5 4 5 6 5 5 4 3 3 4 4 3 2 2 1 3
4 3 3 3 3 3 3 3 3 3 2 1 1 2 2 3 4 4 4 2 2 3 3 3 3 2 2 2 2 2 3 5 7 6 5 6 5 5 3 3 3 3 4
4 4 3 3 2 2 2 2 3 2 2 2 2 2 2 3 3 3 3 2 2 2 2 2 2 1 1 2 1 1 2 3 4 4 5 6 5 4 4 4 4 3 3
4 4 3 3 2 2 2 3 2 2 2 2 2 2 2 3 3 3 2 1 1 1 2 2 2 2 2 2 2 1 1 3 3 3 3 4 5 5 4 2 1 1 2
4 4 3 3 3 3 3 2 2 2 2 2 1 2 2 3 3 3 3 2 1 1 1 2 2 2 2 3 4 3 3 3 2 1 1 2 3 3 3 4 4 3 2
4 3 3 3 3 3 2 2 1 2 2 1 1 1 1 2 2 3 3 2 3 2 1 2 2 3 3 3 3 4 5 4 2 2 2 2 1 2 2 2 3 4 3
3 3 3 2 2 2 2 1 2 3 2 1 0 1 2 2 1 2 2 3 3 3 2 2 2 3 3 3 2 3 3 2 1 1 1 1 2 3 3 3 4 4 5
3 3 3 3 2 1 2 2 2 2 2 2 1 1 2 2 1 2 2 2 3 2 2 3 3 3 2 1 2 2 1 1 1 1 2 3 3 3 2 2 2 2 3
4 3 2 2 1 0 0 1 2 2 2 2 2 2 2 1 1 1 1 1 1 1 2 2 2 2 1 1 1 1 1 2 3 3 3 3 2 1 1 1 1 1 2
3 2 2 2 2 1 0 0 1 2 3 4 3 3 3 2 3 3 2 2 2 2 1 0 1 1 1 1 1 1 1 1 2 2 2 2 2 2 2 1 1 0 1
3 2 2 2 1 1 1 1 3 2 1 2 4 4 3 3 3 2 2 2 3 3 2 1 2 2 2 3 2 2 2 2 3 2 2 2 3 2 2 1 1 1 2
3 3 2 2 2 2 2 2 0 3 4 3 1 1 2 3 3 2 1 1 2 3 2 2 3 3 3 3 3 3 3 3 2 2 2 2 2 2 2 2 1 2 3
2 2 3 2 2 2 2 2 2 2 1 2 3 2 0 2 2 2 1 1 1 1 2 3 3 3 3 3 3 3 3 2 2 2 2 2 2 2 2 2 2 2 3
2 2 2 2 2 2 2 2 1 1 1 1 1 2 1 0 0 1 1 1 1 2 2 3 3 3 3 3 2 2 2 2 2 2 2 2 2 2 2 3 3 4 3
1 1 2 2 2 2 2 2 1 1 1 1 0 1 0 1 0 1 1 2 2 2 3 3 3 3 3 3 2 2 1 1 1 1 2 2 2 2 3 4 3 3 3
1 1 1 1 2 2 2 2 2 2 2 1 2 2 2 1 2 1 2 2 2 2 2 2 2 2 2 2 2 2 2 2 2 2 2 2 2 2 2 3 3 3 3
2 2 1 1 1 1 1 1 2 2 2 2 1 1 1 0 1 1 1 2 2 2 2 1 1 1 2 2 2 2 2 2 2 2 2 2 2 2 3 3 3 3 3
1 1 1 1 1 2 1 1 1 1 1 1 1 1 0 1 1 1 2 2 1 1 1 1 2 1 1 1 1 2 2 2 3 3 2 2 2 3 2 2 3 3 3
0 1 1 1 1 1 1 1 1 1 1 1 1 1 1 2 2 2 2 2 1 1 1 1 2 2 1 1 1 1 1 1 1 2 2 2 2 2 2 2 3 3 4
0 0 1 1 2 1 1 1 1 1 1 1 1 1 1 2 2 2 2 2 1 1 2 1 1 2 2 2 2 1 0 0 1 1 1 1 2 2 2 3 3 3 3
1 1 1 1 1 1 2 2 2 1 1 1 1 1 2 2 2 2 2 2 1 1 2 1 2 2 2 2 1 1 0 1 1 1 1 1 1 2 2 2 3 2 3
Wind_Direction
168 167 153 156 158 157 170 185 185 184 179 179 186 187 196 203 200 198 214 213 214 225 221 209 221 220 219 224 209 204 201 186 216 257 251 264 221 224 223 224 233 231 234
172 161 163 163 162 171 183 186 181 184 187 185 179 182 195 199 201 204 215 214 211 222 230 222 228 221 219 223 205 207 207 198 195 236 264 261 243 231 223 227 240 240 235
160 160 162 171 181 191 192 180 178 185 189 188 183 191 203 201 205 215 215 216 219 225 225 221 226 215 226 229 216 216 214 210 187 200 252 260 268 263 242 254 247 249 249
157 158 165 184 196 196 190 178 179 182 188 194 194 196 200 200 204 213 213 218 225 233 230 225 220 212 220 226 223 220 210 203 195 200 238 262 270 276 206 232 264 262 258
154 162 179 191 187 182 176 179 177 183 196 193 192 198 195 194 209 215 219 220 226 245 257 245 230 221 221 217 219 211 198 198 198 201 225 254 266 268 242 226 236 265 269
149 157 174 175 173 182 185 181 170 186 199 183 193 192 199 218 220 219 208 215 231 238 255 265 257 240 233 225 225 214 199 197 202 205 220 224 246 243 241 224 217 236 273
147 151 159 170 182 191 183 170 181 189 193 182 187 182 209 230 221 216 215 201 222 234 240 255 269 259 233 240 246 241 237 223 207 202 209 223 228 229 214 229 227 227 241
145 150 156 162 170 173 168 182 201 194 191 206 219 212 218 248 224 216 219 199 211 238 239 228 223 251 233 184 192 236 267 263 237 214 211 224 225 220 207 212 221 240 271
148 159 169 169 167 176 189 209 213 196 207 215 221 217 225 256 228 205 179 171 198 257 265 246 205 214 246 190 160 188 259 286 281 235 221 225 229 227 202 170 186 180 269
173 179 183 176 172 186 203 209 208 190 204 206 224 233 226 236 226 202 178 160 179 263 306 295 251 237 247 195 183 189 220 250 261 300 290 281 272 269 238 201 194 199 232
175 166 168 180 187 193 193 182 183 184 185 191 218 282 251 237 230 206 184 174 187 204 233 268 268 255 246 226 202 201 217 224 224 224 244 266 286 284 273 250 213 198 213
152 155 166 171 187 190 170 182 178 170 168 185 142 337 305 269 232 224 207 201 186 180 218 247 262 255 251 238 219 235 231 199 174 189 239 256 261 270 269 265 249 236 230
143 158 169 168 174 180 174 185 182 177 175 193 176 207 294 302 279 249 232 224 209 196 224 243 266 263 257 256 241 232 211 177 186 208 236 247 249 257 271 289 289 281 281
146 162 169 164 172 150 156 171 176 189 190 195 199 211 249 295 292 277 268 243 211 238 272 288 272 282 280 242 261 265 220 208 207 221 235 246 258 275 275 264 282 318 319
149 156 165 175 183 167 151 233 201 215 208 193 204 205 204 224 251 233 202 222 218 216 194 357 7 356 337 321 297 281 252 228 225 232 231 244 255 259 269 264 252 268 246
155 165 171 173 168 158 150 18 13 5 300 192 193 195 221 220 217 206 207 221 210 184 139 191 240 241 239 241 241 252 244 238 236 227 233 241 248 254 265 279 275 251 265
170 180 175 170 165 166 170 168 226 358 17 25 340 222 206 201 207 213 227 244 213 164 167 224 235 238 239 240 238 239 246 249 234 221 230 246 255 260 260 272 280 280 278
168 181 180 186 189 187 187 185 175 165 311 332 334 333 192 189 210 218 203 86 23 45 215 229 237 238 236 237 239 242 250 256 248 237 238 244 241 240 257 268 268 268 279
174 189 187 183 185 187 180 173 166 161 179 240 338 338 313 252 156 220 171 156 216 252 251 243 243 243 243 242 246 248 241 239 247 252 254 254 247 241 255 262 264 268 272
191 175 154 157 156 163 167 164 172 165 156 159 227 267 272 65 352 283 254 243 242 255 253 245 245 242 240 235 236 240 240 254 273 278 278 272 260 247 251 256 258 261 263
193 188 152 129 157 178 173 165 168 166 178 196 230 244 196 199 232 253 265 261 256 258 257 257 251 247 240 232 229 226 220 234 242 260 275 280 279 265 256 254 257 259 269
176 178 187 189 176 173 174 176 171 174 198 218 248 274 214 234 256 274 273 274 274 269 254 250 259 250 231 225 225 220 223 239 249 257 270 275 280 276 266 261 267 270 268
174 191 197 186 161 155 162 184 167 172 193 194 177 165 167 252 258 256 264 269 264 250 249 241 247 257 258 216 195 195 204 230 243 238 249 272 280 278 272 275 282 284 275
109 225 210 199 173 164 175 172 157 166 167 167 165 180 207 232 250 249 243 253 258 252 234 220 218 215 204 141 143 149 166 213 237 238 232 246 273 285 279 278 279 277 278
115 225 228 203 189 187 182 185 190 181 176 177 189 217 242 244 245 242 237 242 244 250 253 236 189 175 178 177 171 173 198 298 293 303 285 260 271 283 279 275 277 283 287
200 188 224 198 192 197 195 196 195 191 207 214 218 233 243 244 242 244 235 237 251 265 262 232 188 177 181 181 187 185 267 321 319 307 276 256 266 289 292 279 282 290 296
Height
1486 1487 1488 1490 1491 1492 1493 1494 1495 1495 1496 1497 1497 1498 1499 1499 1500 1501 1501 1502 1502 1503 1503 1504 1504 1504 1505 1505 1506 1506 1506 1507 1505 1505 1506 1507 1507 1508 1508 1509 1509 1509 1510
1485 1486 1487 1488 1489 1490 1491 1491 1492 1494 1494 1495 1495 1496 1496 1497 1497 1498 1498 1499 1499 1500 1500 1501 1501 1501 1501 1501 1502 1502 1503 1503 1503 1502 1503 1504 1504 1505 1505 1505 1506 1506 1507
1483 1484 1485 1486 1487 1488 1488 1489 1490 1491 1492 1493 1493 1493 1494 1494 1495 1495 1495 1496 1496 1497 1497 1497 1497 1497 1497 1498 1498 1499 1499 1500 1500 1500 1500 1500 1501 1502 1502 1502 1502 1503 1503
1481 1482 1483 1484 1485 1486 1486 1487 1488 1489 1490 1490 1491 1491 1492 1492 1492 1492 1493 1493 1493 1493 1494 1494 1494 1494 1494 1495 1495 1495 1496 1497 1497 1497 1497 1497 1498 1498 1499 1498 1499 1499 1500
1479 1480 1481 1482 1483 1484 1484 1485 1486 1487 1488 1488 1488 1489 1489 1490 1490 1490 1490 1491 1491 1491 1491 1491 1491 1491 1492 1492 1492 1492 1493 1493 1493 1494 1494 1494 1495 1495 1495 1495 1495 1495 1496
1478 1479 1480 1481 1481 1482 1483 1483 1484 1485 1485 1486 1486 1487 1487 1487 1487 1488 1488 1488 1488 1488 1488 1488 1488 1488 1488 1489 1489 1489 1489 1489 1490 1490 1490 1491 1491 1492 1492 1492 1492 1492 1492
1476 1477 1478 1479 1480 1480 1481 1481 1482 1482 1483 1483 1484 1484 1484 1484 1485 1485 1486 1486 1486 1485 1485 1485 1485 1485 1485 1485 1485 1486 1486 1486 1487 1487 1487 1487 1488 1488 1489 1489 1489 1489 1488
1474 1476 1477 1477 1478 1478 1479 1479 1480 1480 1480 1481 1481 1481 1482 1482 1483 1483 1483 1483 1483 1483 1483 1482 1482 1482 1482 1482 1482 1482 1482 1483 1483 1484 1484 1484 1485 1485 1486 1486 1486 1486 1485
1473 1474 1475 1476 1476 1476 1477 1477 1477 1478 1478 1478 1479 1479 1480 1480 1480 1480 1481 1481 1480 1480 1480 1480 1479 1479 1479 1479 1479 1479 1479 1480 1480 1481 1481 1481 1482 1482 1482 1483 1482 1482 1481
1472 1473 1474 1474 1475 1475 1475 1475 1475 1475 1476 1476 1476 1477 1477 1477 1477 1478 1478 1478 1477 1477 1477 1477 1477 1477 1477 1476 1476 1476 1476 1477 1477 1478 1478 1478 1479 1479 1479 1479 1479 1479 1478
1471 1471 1472 1473 1473 1473 1473 1473 1474 1474 1474 1474 1474 1475 1475 1475 1475 1475 1475 1475 1475 1475 1475 1475 1475 1475 1474 1474 1474 1474 1474 1475 1475 1475 1475 1475 1475 1475 1476 1476 1476 1476 1475
1469 1470 1471 1471 1472 1472 1471 1471 1472 1472 1472 1471 1471 1471 1472 1472 1472 1472 1472 1473 1473 1473 1473 1473 1473 1473 1473 1472 1472 1472 1472 1472 1472 1472 1472 1472 1472 1472 1472 1472 1473 1473 1472
1468 1469 1469 1470 1470 1470 1469 1470 1470 1470 1470 1469 1469 1469 1469 1469 1469 1470 1470 1470 1471 1471 1471 1471 1471 1471 1470 1470 1470 1470 1470 1470 1470 1470 1469 1469 1469 1469 1469 1469 1469 1469 1468
1467 1467 1468 1468 1469 1469 1468 1468 1468 1468 1467 1467 1467 1467 1467 1467 1466 1467 1467 1468 1468 1468 1469 1468 1468 1468 1468 1468 1468 1468 1468 1468 1467 1467 1467 1467 1467 1466 1466 1466 1465 1465 1464
1466 1466 1467 1467 1467 1467 1467 1467 1467 1467 1467 1466 1466 1466 1466 1465 1465 1465 1465 1465 1466 1466 1466 1466 1466 1466 1465 1465 1466 1466 1466 1465 1465 1464 1464 1464 1463 1463 1463 1463 1462 1462 1461
1465 1465 1465 1465 1466 1466 1466 1466 1466 1466 1465 1465 1465 1465 1465 1464 1464 1463 1463 1464 1464 1464 1464 1463 1463 1463 1463 1463 1463 1463 1463 1462 1462 1462 1461 1461 1461 1460 1460 1460 1459 1459 1458
1463 1464 1464 1464 1464 1465 1464 1464 1464 1464 1463 1463 1463 1463 1463 1462 1462 1462 1461 1461 1461 1461 1461 1461 1461 1460 1460 1460 1460 1460 1460 1460 1459 1459 1458 1458 1458 1457 1457 1456 1456 1455 1455
1462 1462 1463 1463 1463 1463 1463 1463 1462 1462 1461 1461 1461 1461 1461 1460 1460 1459 1459 1459 1458 1458 1458 1458 1458 1458 1458 1458 1458 1457 1457 1457 1456 1456 1455 1455 1454 1454 1454 1453 1452 1452 1451
1461 1461 1461 1461 1461 1461 1461 1461 1461 1461 1460 1459 1459 1459 1459 1458 1458 1457 1456 1456 1455 1455 1455 1455 1455 1455 1455 1455 1455 1455 1454 1454 1453 1453 1452 1451 1451 1450 1450 1450 1449 1449 1449
1460 1460 1460 1460 1460 1460 1460 1460 1459 1459 1458 1458 1457 1456 1456 1456 1455 1454 1454 1453 1453 1453 1453 1453 1453 1452 1452 1452 1452 1452 1451 1451 1450 1450 1449 1448 1448 1447 1447 1446 1446 1446 1445
1458 1458 1458 1458 1458 1458 1458 1458 1458 1457 1457 1456 1456 1455 1455 1453 1452 1452 1451 1451 1450 1450 1450 1450 1450 1450 1449 1449 1449 1449 1448 1448 1447 1446 1446 1445 1445 1444 1444 1443 1443 1443 1442
1456 1456 1456 1456 1456 1456 1456 1456 1456 1456 1455 1454 1454 1453 1453 1452 1451 1450 1449 1448 1448 1448 1448 1447 1447 1447 1447 1447 1446 1446 1445 1445 1444 1443 1443 1442 1441 1440 1440 1440 1439 1439 1439
1454 1454 1454 1454 1454 1454 1454 1454 1454 1453 1453 1452 1451 1451 1450 1449 1448 1447 1447 1446 1445 1445 1445 1445 1444 1444 1444 1444 1444 1443 1442 1441 1441 1440 1439 1438 1438 1437 1436 1436 1436 1436 1435
1452 1452 1452 1452 1452 1452 1452 1452 1451 1451 1450 1449 1449 1448 1447 1447 1446 1445 1445 1444 1443 1443 1442 1442 1442 1442 1441 1441 1441 1440 1440 1439 1438 1437 1436 1435 1435 1434 1434 1433 1433 1432 1432
1450 1449 1449 1449 1449 1449 1449 1449 1449 1448 1447 1447 1446 1446 1445 1444 1443 1442 1442 1441 1441 1440 1440 1439 1439 1438 1438 1438 1438 1437 1437 1436 1435 1434 1434 1433 1432 1431 1431 1430 1430 1429 1429
1448 1448 1447 1446 1446 1446 1446 1446 1446 1445 1445 1444 1444 1443 1442 1441 1440 1440 1439 1438 1438 1437 1436 1436 1435 1435 1435 1435 1435 1434 1434 1433 1432 1432 1431 1430 1429 1429 1428 1427 1427 1426 1426